| time (UTC) | temp C | wind direction | speed KPH | gust KPH | rain 1hr cm | rain 24hr cm | rain mn cm | humidity % | barometer mb |
| 20260510091239 | 20 | 99 | 3.2 | 9.7 | 0.00 | 0.71 | 0.71 | 56 | 1012.5 |
| 20260510085738 | 20 | 54 | 3.2 | 8.0 | 0.00 | 0.71 | 0.71 | 100 | 1012.5 |
| 20260510084238 | 19 | 279 | 1.6 | 8.0 | 0.00 | 0.71 | 0.71 | 55 | 1012.6 |
| 20260510082737 | 93 | 333 | 1.6 | 9.7 | 0.00 | 0.71 | 0.71 | 48 | 1012.6 |
| 20260510081236 | 17 | 234 | 0.0 | 4.8 | 0.00 | 0.71 | 0.71 | 100 | 1012.6 |
| 20260510075735 | 16 | 196 | 1.6 | 4.8 | 0.00 | 0.71 | 0.71 | 100 | 1012.5 |
| 20260510074234 | 93 | 182 | 1.6 | 9.7 | 0.00 | 0.71 | 0.71 | 100 | 1012.4 |
| 20260510072733 | 16 | 218 | 0.0 | 4.8 | 0.00 | 0.71 | 0.71 | 100 | 1012.4 |
| 20260510071232 | 15 | 235 | 1.6 | 6.4 | 0.00 | 0.71 | 0.71 | 32 | 1012.4 |
| 20260510065732 | 14 | 262 | 1.6 | 4.8 | 0.00 | 0.71 | 0.71 | 31 | 1012.3 |
| 20260510064231 | 14 | 333 | 0.0 | 3.2 | 0.00 | 0.71 | 0.71 | 30 | 1012.4 |
| 20260510062730 | 13 | 140 | 0.0 | 0.0 | 0.00 | 0.71 | 0.71 | 30 | 1012.3 |
| 20260510061229 | 12 | 174 | 0.0 | 1.6 | 0.00 | 0.71 | 0.71 | 31 | 1012.1 |
| 20260510055728 | 11 | 140 | 0.0 | 0.0 | 0.00 | 0.71 | 0.71 | 31 | 1012.2 |
| 20260510054227 | 11 | 140 | 0.0 | 1.6 | 0.00 | 0.71 | 0.71 | 32 | 1012.1 |
| 20260510052726 | 10 | 140 | 0.0 | 0.0 | 0.00 | 0.71 | 0.71 | 32 | 1012.1 |
| 20260510051226 | 10 | 140 | 0.0 | 0.0 | 0.00 | 0.71 | 0.71 | 32 | 1012.0 |
| 20260510045725 | 10 | 140 | 0.0 | 0.0 | 0.00 | 0.71 | 0.71 | 32 | 1012.1 |
| 20260510044224 | 10 | 140 | 0.0 | 0.0 | 0.00 | 0.71 | 0.71 | 32 | 1012.2 |
| 20260510042723 | 10 | 140 | 0.0 | 0.0 | 0.00 | 0.71 | 0.71 | 32 | 1012.2 |
| 20260510041222 | 11 | 140 | 0.0 | 0.0 | 0.00 | 0.71 | 0.71 | 32 | 1012.2 |
| 20260510035721 | 11 | 140 | 0.0 | 0.0 | 0.00 | 0.71 | 0.71 | 32 | 1012.2 |
| 20260510034220 | 11 | 140 | 0.0 | 1.6 | 0.00 | 0.71 | 0.71 | 32 | 1012.2 |
| 20260510032720 | 10 | 140 | 0.0 | 3.2 | 0.00 | 0.71 | 0.71 | 32 | 1012.2 |
| 20260510031219 | 10 | 140 | 0.0 | 1.6 | 0.00 | 0.71 | 0.71 | 32 | 1012.2 |
| 20260510025718 | 11 | 140 | 1.6 | 4.8 | 0.00 | 0.71 | 0.71 | 32 | 1012.4 |
| 20260510024217 | 11 | 136 | 0.0 | 0.0 | 0.00 | 0.71 | 0.71 | 32 | 1012.5 |
| 20260510022716 | 11 | 136 | 0.0 | 0.0 | 0.00 | 0.71 | 0.71 | 32 | 1012.6 |
| 20260510021215 | 11 | 136 | 0.0 | 1.6 | 0.00 | 0.71 | 0.71 | 32 | 1012.6 |
| 20260510015715 | 11 | 136 | 0.0 | 0.0 | 0.00 | 0.71 | 0.71 | 32 | 1012.5 |
| 20260510014214 | 11 | 136 | 0.0 | 1.6 | 0.00 | 0.71 | 0.71 | 32 | 1012.4 |
| 20260510012713 | 12 | 136 | 0.0 | 0.0 | 0.00 | 0.71 | 0.71 | 31 | 1012.2 |
| 20260510011212 | 12 | 136 | 0.0 | 0.0 | 0.00 | 0.71 | 0.71 | 31 | 1012.3 |
| 20260510005711 | 12 | 136 | 0.0 | 1.6 | 0.00 | 0.71 | 0.71 | 31 | 1012.4 |
| 20260510004210 | 12 | 137 | 0.0 | 1.6 | 0.00 | 0.71 | 0.71 | 31 | 1012.5 |
| 20260510002709 | 12 | 137 | 0.0 | 0.0 | 0.00 | 0.71 | 0.71 | 31 | 1012.6 |
| 20260510001209 | 13 | 137 | 0.0 | 0.0 | 0.00 | 0.71 | 0.71 | 31 | 1012.8 |
| 20260509235708 | 12 | 137 | 0.0 | 4.8 | 0.00 | 0.71 | 0.71 | 31 | 1013.1 |
| 20260509234207 | 12 | 109 | 0.0 | 3.2 | 0.00 | 0.71 | 0.71 | 31 | 1013.2 |
| 20260509232706 | 93 | 109 | 0.0 | 0.0 | 0.00 | 0.71 | 0.71 | 100 | 1013.2 |
| 20260509231205 | 12 | 109 | 1.6 | 1.6 | 0.00 | 0.71 | 0.71 | 31 | 1013.2 |
| 20260509225704 | 13 | 112 | 0.0 | 0.0 | 0.00 | 0.71 | 0.71 | 30 | 1013.3 |
| 20260509224203 | 13 | 112 | 0.0 | 0.0 | 0.00 | 0.71 | 0.71 | 30 | 1013.2 |
| 20260509222703 | 13 | 112 | 0.0 | 0.0 | 0.00 | 0.71 | 0.71 | 30 | 1013.2 |
| 20260509221202 | 93 | 112 | 0.0 | 1.6 | 0.00 | 0.71 | 0.71 | 100 | 1013.2 |
| 20260509215701 | 13 | 112 | 0.0 | 0.0 | 0.00 | 0.71 | 0.71 | 30 | 1013.1 |
| 20260509214200 | 13 | 111 | 0.0 | 0.0 | 0.00 | 0.71 | 0.71 | 30 | 1013.2 |
| 20260509212659 | 93 | 112 | 0.0 | 3.2 | 0.00 | 0.71 | 0.71 | 100 | 1013.1 |
| 20260509211158 | 13 | 116 | 1.6 | 3.2 | 0.00 | 0.71 | 0.71 | 30 | 1013.1 |
| 20260509205657 | 13 | 119 | 0.0 | 0.0 | 0.00 | 0.71 | 0.71 | 30 | 1013.0 |
| 20260509204157 | 13 | 119 | 0.0 | 3.2 | 0.00 | 0.71 | 0.71 | 30 | 1012.7 |
| 20260509202656 | 13 | 87 | 0.0 | 3.2 | 0.00 | 0.71 | 0.71 | 30 | 1012.5 |
| 20260509201155 | 14 | 75 | 0.0 | 0.0 | 0.00 | 0.71 | 0.71 | 30 | 1012.2 |
| 20260509195654 | 14 | 75 | 0.0 | 0.0 | 0.00 | 0.71 | 0.71 | 30 | 1011.9 |
| 20260509194153 | 14 | 75 | 0.0 | 0.0 | 0.00 | 0.71 | 0.71 | 30 | 1011.6 |
| 20260509192652 | 14 | 75 | 0.0 | 0.0 | 0.00 | 0.71 | 0.71 | 30 | 1011.5 |
| 20260509191151 | 93 | 75 | 0.0 | 1.6 | 0.00 | 0.71 | 0.71 | 30 | 1011.4 |
| 20260509185651 | 13 | 52 | 0.0 | 3.2 | 0.00 | 0.71 | 0.71 | 100 | 1011.1 |
| 20260509184150 | 93 | 268 | 1.6 | 4.8 | 0.03 | 0.71 | 0.71 | 30 | 1010.5 |
| 20260509182649 | 93 | 283 | 0.0 | 1.6 | 0.03 | 0.71 | 0.71 | 100 | 1010.3 |
| 20260509181148 | 13 | 223 | 1.6 | 6.4 | 0.05 | 0.71 | 0.71 | 100 | 1010.0 |
| 20260509175647 | 13 | 113 | 1.6 | 3.2 | 0.08 | 0.71 | 0.71 | 30 | 1010.1 |
| 20260509174146 | 13 | 146 | 0.0 | 3.2 | 0.10 | 0.69 | 0.69 | 100 | 1009.8 |
| 20260509172646 | 13 | 149 | 4.8 | 8.0 | 0.15 | 0.69 | 0.69 | 31 | 1009.9 |
| 20260509171145 | 13 | 178 | 3.2 | 9.7 | 0.20 | 0.66 | 0.66 | 31 | 1010.4 |
| 20260509165644 | 13 | 167 | 3.2 | 8.0 | 0.23 | 0.64 | 0.64 | 100 | 1011.2 |
| 20260509164143 | 14 | 169 | 1.6 | 8.0 | 0.23 | 0.58 | 0.58 | 31 | 1011.8 |
| 20260509162642 | 93 | 336 | 0.0 | 4.8 | 0.33 | 0.53 | 0.53 | 31 | 1012.3 |
| 20260509161141 | 93 | 19 | 0.0 | 3.2 | 0.36 | 0.46 | 0.46 | 32 | 1012.7 |
| 20260509155640 | 14 | 0 | 1.6 | 4.8 | 0.36 | 0.41 | 0.41 | 32 | 1012.8 |
| 20260509154140 | 14 | 21 | 1.6 | 6.4 | 0.30 | 0.36 | 0.36 | 34 | 1012.9 |
| 20260509152639 | 15 | 36 | 4.8 | 11.3 | 0.15 | 0.20 | 0.20 | 36 | 1012.2 |
| 20260509151138 | 15 | 22 | 1.6 | 3.2 | 0.05 | 0.10 | 0.10 | 37 | 1010.4 |
| 20260509145637 | 15 | 323 | 0.0 | 4.8 | 0.05 | 0.05 | 0.05 | 41 | 1010.1 |
| 20260509144136 | 15 | 280 | 1.6 | 6.4 | 0.05 | 0.05 | 0.05 | 45 | 1010.3 |
| 20260509142635 | 15 | 302 | 4.8 | 12.9 | 0.05 | 0.05 | 0.05 | 49 | 1010.9 |
| 20260509141134 | 16 | 296 | 8.0 | 12.9 | 0.05 | 0.05 | 0.05 | 100 | 1011.2 |
| 20260509135634 | 17 | 299 | 8.0 | 16.1 | 0.00 | 0.00 | 0.00 | 64 | 1011.6 |
| 20260509134133 | 17 | 331 | 3.2 | 12.9 | 0.00 | 0.00 | 0.00 | 66 | 1012.0 |
| 20260509132632 | 17 | 0 | 3.2 | 6.4 | 0.00 | 0.00 | 0.00 | 66 | 1011.9 |
| 20260509131131 | 17 | 322 | 3.2 | 6.4 | 0.00 | 0.00 | 0.00 | 66 | 1011.7 |
| 20260509125630 | 17 | 292 | 3.2 | 11.3 | 0.00 | 0.00 | 0.00 | 65 | 1011.4 |
| 20260509124129 | 17 | 283 | 3.2 | 6.4 | 0.00 | 0.00 | 0.00 | 61 | 1011.1 |
| 20260509122628 | 17 | 273 | 6.4 | 16.1 | 0.00 | 0.00 | 0.00 | 59 | 1011.4 |
| 20260509121128 | 17 | 302 | 12.9 | 20.9 | 0.00 | 0.00 | 0.00 | 63 | 1012.4 |
| 20260509115627 | 17 | 286 | 9.7 | 17.7 | 0.00 | 0.00 | 0.00 | 65 | 1012.8 |
| 20260509114126 | 17 | 288 | 9.7 | 14.5 | 0.00 | 0.00 | 0.00 | 65 | 1013.0 |
| 20260509112625 | 17 | 323 | 12.9 | 22.5 | 0.00 | 0.00 | 0.00 | 65 | 1013.3 |
| 20260509111124 | 93 | 271 | 9.7 | 20.9 | 0.00 | 0.00 | 0.00 | 60 | 1012.9 |
| 20260509105623 | 17 | 296 | 8.0 | 22.5 | 0.00 | 0.00 | 0.00 | 58 | 1013.0 |
| 20260509104122 | 18 | 335 | 4.8 | 14.5 | 0.00 | 0.00 | 0.00 | 100 | 1013.3 |
| 20260509102622 | 18 | 5 | 8.0 | 14.5 | 0.00 | 0.00 | 0.00 | 60 | 1013.1 |
| 20260509101121 | 18 | 267 | 8.0 | 12.9 | 0.00 | 0.00 | 0.00 | 60 | 1013.0 |
| 20260509095620 | 18 | 325 | 4.8 | 9.7 | 0.00 | 0.00 | 0.00 | 61 | 1012.9 |
| 20260509094119 | 17 | 253 | 3.2 | 11.3 | 0.00 | 0.00 | 0.00 | 62 | 1012.7 |
| 20260509092618 | 17 | 157 | 1.6 | 12.9 | 0.00 | 0.00 | 0.00 | 62 | 1012.7 |